Location: Cluj-Napoca
(46.7712°N, 23.6236°E)
Time: 12:15:09
(UTC+03:00)

ISS - Pass Details

Date: 13 May 2021
Orbit: 417 x 422 km, 51.6° (Epoch: 15 May)

Event Time Altitude Azimuth Distance (km) Brightness Sun altitude
Rises 04:39:53 0° 295° (WNW) 2,371 -0.2 -11.1°
Reaches altitude 10° 04:41:59 10° 295° (WNW) 1,506 -1.2 -10.8°
Maximum altitude 04:45:22 83° 208° (SSW) 428 -3.8 -10.4°
Drops below altitude 10° 04:48:44 10° 120° (ESE) 1,501 -0.7 -9.9°
Sets 04:50:50 0° 120° (ESE) 2,363 0.3 -9.7°
